METEOR 2-11 DEB, 43309

Orbit data source: Space-Track

METEOR 2-11 DEB, 43309 is space debris in LEO originally from a launch on Thu, 05 Jul 1984 UTC launched from the Plesetsk Missile And Space Complex (PKMTR). Debris objects in space refer to the collection of defunct objects orbiting the Earth. Examples of debris include non-operational satellites, rocket bodies, and fragments generated from explosions, collisions, or faulty payload assembly.

Loading next visibility...
Identifier
43309, 1984-072U
Orbit
LEO
Country
Flag of CISCIS
Related business
Manufacturer
Unknown
Mission
Spacecraft
Bus & Motor
Unknown
Mass
Unknown
Launch date (UTC)
1984-07-05 (41 years ago)
Launch vehicle
Unknown
Launch site
Plesetsk Missile And Space Complex (PKMTR)
Object type
Payload
Rocket body
Debris
Shape & HBR
Unknown shape, 0.1 m
Radar Cross Section
Small (<0.1 m²)

Expand to show TLE details & history
Last TLE update: 2 days ago

TLE from 2 days ago
0 METEOR 2-11 DEB
1 43309U 84072U   25302.43050367  .00005240  00000-0  36495-2 0  9990
2 43309  82.5276 197.4698 0030512 291.6700  68.1219 13.98277708531032
Epoch: 2025-10-29T10:19Z
TLE epoch observation values (Epoch: 2025-10-29T10:19:55.517Z)
Latitude
-0.00004°
Longitude
4.48472°
Altitude
894.468 km
Speed
7.409 km/s
True Right ascension
13h 09m 52s
True Declination
0° 00' 00"
Sunlit
Object was in daylight at epoch
Visualization orbit readout
Latitude
Unknown
Longitude
Unknown
Altitude
Unknown
Speed
Unknown
Apparent Right ascension
Unknown
Apparent Declination
Unknown
Sunlit
N/A
Visualization observer readout
Local Sidereal Time
19:21:57
Azimuth
Unknown
Elevation
Unknown
Doppler factor
Unknown
Orbital elements
Apogee altitude
919.096 km
Perigee altitude
874.701 km
Semi-major axis
7,275.035 km
Eccentricity
0.00305
Inclination
82.5276°
RAAN
197.4698°
Arg. of periapsis
291.67°
True anomaly
68.44682°
Mean anomaly
68.1219°
Eccentric anomaly
68.28431°
Mean motion
3.49776 °/min
Orbital period
102.92 mins
BSTAR
0.0036495
Loading maneuver chart data...
Computing Atmospheric mass density...
Loading historical data...
Loading historical data...
Loading historical data...
Loading historical data...
Loading historical data...
Loading historical data...
Loading historical data...

Documentation

Showing up to 5 results
|